weerspreuk van de week :November heeft maar dertig dagen, maar dubbel wind en regenvlagen.
BCC, Altijd een oplossing in huis

Onweer radar Meer informatie blitzortung!


Regen radar Meer informatie rain snow radar


Bekijk deze sites ook eens:

Awekas

AMAZON.NL

Canon

Het weer actueel

Diam Telecom

Dierspecialist (TIP)

Paradigit

Expert

Zooplus

De Kempen, mijn omgeving

Douglas

BOL.com

Weerstation Noordbergum

Inktweb

yourhosting

petsonline

Youfone

bestbuyhoesjes

huisdierexpress

e-matching.

Seniorengeluk

Weerverwachting Samos

Samos actueel

Weerwoord (forum)

wow-knmi

Wolven in Nederland



ILUYKSGE3 History tables / reports. Script startWUhistory.php

Select another period ( hide this area )

Eenheden Periode Custom range Directly to
Metrisch Engels Beide
Dagelijkse Wekelijkse Maandelijkse Jaarlijkse
use both date-selectors for a custom range
previous Dag
With this date

WeatherUnderground graphs for this period ( click here ) Loading the graph can take up to a minute!


Dagelijkse Samenvatting Zondag Nov 27 2022
Tijd Temp. ( °C ) Dew pt. ( °C ) Wind ( km/h ) van Windvlaag ( km/h ) Luchtdruk ( hPa ) Humid.( % ) Rainrate ( cm )
Hoog6,6 4,8 13,0 Zuiden ( 187/408 ) 19,0 1024,4 92 -
Gemiddeld5,8 4,1 5,3 Zuiden #36/77 10,8 1022,7 89 -
Laag4,8 3,5 -   0,0 1021,3 85 -
Dagelijkse Tabular details for Zondag Nov 27 2022
Tijd Temp. ( °C ) Dew pt. ( °C ) Wind ( km/h ) van Windvlaag ( km/h ) Luchtdruk ( hPa ) Humid.( % ) Rainrate ( cm )
00:01 6,2 4,8 10,0 Zuiden 13,0 1024,4 91 -
00:06 6,2 4,8 8,0 Zuiden 15,0 1024,4 91 -
00:11 6,3 4,8 8,0 ZO 13,0 1024,4 90 -
00:16 6,2 4,7 8,0 Zuiden 10,0 1024,0 90 -
00:21 6,2 4,8 11,0 ZO 15,0 1024,0 91 -
00:26 6,1 4,6 5,0 Zuiden 11,0 1024,0 90 -
00:31 6,1 4,6   Kalm 8,0 1024,0 90 -
00:36 6,1 4,6 3,0 ZZO 11,0 1024,0 90 -
00:41 5,9 4,4 8,0 ZZO 11,0 1024,0 90 -
00:47 5,9 4,5 5,0 ZZO 11,0 1024,0 91 -
00:52 5,9 4,5 1,0 ZZO 8,0 1024,0 91 -
00:57 5,8 4,3 8,0 Zuiden 10,0 1024,0 90 -
01:02 5,7 4,2 3,0 Zuiden 8,0 1024,0 90 -
01:07 5,6 4,1 3,0 Zuiden 6,0 1024,0 90 -
01:12 5,5 4,1 3,0 Zuiden 8,0 1024,0 91 -
01:17 5,4 3,9 8,0 Zuiden 8,0 1024,0 90 -
01:22 5,3 4,0 8,0 ZZO 11,0 1024,0 91 -
01:27 5,3 4,0 1,0 Zuiden 8,0 1024,0 91 -
01:32 5,2 3,9 3,0 Zuiden 5,0 1023,7 91 -
01:37 5,1 3,8 5,0 Zuiden 5,0 1023,7 91 -
01:43 5,1 3,8 6,0 ZZO 8,0 1023,7 91 -
01:48 5,0 3,7 1,0 Zuiden 6,0 1023,7 91 -
01:53 4,9 3,6 3,0 ZZO 5,0 1023,7 91 -
01:58 4,9 3,6 6,0 Zuiden 8,0 1023,4 91 -
02:03 4,9 3,6   Kalm   1023,4 91 -
02:08 4,8 3,5   Kalm   1023,4 91 -
02:13 4,8 3,6   Kalm 8,0 1023,0 92 -
02:18 4,8 3,6 1,0 Zuiden 8,0 1023,0 92 -
02:23 4,8 3,6 1,0 Zuiden 8,0 1023,0 92 -
02:28 4,9 3,7 1,0 Zuiden 8,0 1023,4 92 -
02:33 4,9 3,7 3,0 Zuiden 6,0 1023,4 92 -
02:38 4,9 3,7 3,0 ZZO 8,0 1023,4 92 -
02:43 5,0 3,8 6,0 ZZO 10,0 1023,0 92 -
02:48 5,0 3,8 6,0 ZO 10,0 1023,0 92 -
02:54 5,1 3,9 8,0 ZZO 16,0 1023,0 92 -
02:59 5,2 4,0 3,0 ZZW 13,0 1022,7 92 -
03:04 5,2 4,0 6,0 ZZO 15,0 1022,7 92 -
03:09 5,3 4,1 10,0 Zuiden 13,0 1022,7 92 -
03:14 5,4 4,2 5,0 Zuiden 15,0 1022,4 92 -
03:19 5,4 4,2 10,0 ZZO 11,0 1022,4 92 -
03:24 5,5 4,3 3,0 ZZO 10,0 1022,4 92 -
03:29 5,6 4,4 6,0 Zuiden 11,0 1022,0 92 -
03:34 5,6 4,2 1,0 ZO 10,0 1022,0 91 -
03:39 5,7 4,3 3,0 Zuiden 10,0 1022,0 91 -
03:44 5,7 4,3 3,0 ZO 13,0 1022,0 91 -
03:49 5,8 4,3 5,0 ZZW 8,0 1022,0 90 -
03:54 5,8 4,3 6,0 Zuiden 15,0 1022,0 90 -
03:59 5,9 4,4 1,0 ZZO 8,0 1022,0 90 -
04:04 6,0 4,3 11,0 ZZW 18,0 1022,0 89 -
04:09 6,1 4,4 13,0 Zuiden 16,0 1022,0 89 -
04:14 6,2 4,4 3,0 Zuiden 13,0 1022,0 88 -
04:19 6,2 4,4 3,0 Zuiden 13,0 1022,0 88 -
04:24 6,2 4,2 6,0 ZZO 15,0 1022,0 87 -
04:29 6,2 4,2 3,0 Zuiden 16,0 1021,7 87 -
04:34 6,2 4,0 11,0 ZZO 15,0 1021,7 86 -
04:39 6,3 4,1 6,0 ZZO 19,0 1021,7 86 -
04:44 6,3 4,1 6,0 ZZO 10,0 1021,7 86 -
04:49 6,3 4,1 13,0 ZZW 13,0 1021,7 86 -
04:54 6,3 4,1 8,0 ZZO 18,0 1021,7 86 -
04:59 6,3 4,0 11,0 Zuiden 11,0 1021,3 85 -
05:05 6,3 4,0 13,0 Zuiden 16,0 1021,3 85 -
05:10 6,3 4,0 6,0 ZZW 13,0 1021,3 85 -
05:15 6,4 4,1 3,0 Zuiden 10,0 1021,7 85 -
05:20 6,3 4,0 8,0 ZZO 11,0 1021,7 85 -
05:25 6,3 4,0 3,0 Zuiden 11,0 1021,7 85 -
05:30 6,4 4,1 1,0 ZZO 10,0 1021,7 85 -
05:35 6,3 4,0 6,0 ZZW 10,0 1021,7 85 -
05:40 6,4 4,1 6,0 ZZO 13,0 1021,7 85 -
05:45 6,4 4,1 6,0 Zuiden 13,0 1021,7 85 -
05:51 6,4 4,1 6,0 ZZO 13,0 1021,7 85 -
05:56 6,4 4,1 6,0 ZZW 8,0 1021,7 85 -
06:01 6,4 4,1 8,0 ZZW 15,0 1021,3 85 -
06:06 6,5 4,2 1,0 Zuiden 10,0 1021,3 85 -
06:11 6,5 4,2 6,0 Zuiden 13,0 1021,3 85 -
06:16 6,6 4,3 8,0 Zuiden 11,0 1021,3 85 -
06:21 6,6 4,3 5,0 ZZW 10,0 1021,3 85 -
06:26 6,6 4,3 6,0 Zuiden 8,0 1021,3 85 -
Dagelijkse Samenvatting Zondag Nov 27 2022
Tijd Temp. ( °C ) Dew pt. ( °C ) Wind ( km/h ) van Windvlaag ( km/h ) Luchtdruk ( hPa ) Humid.( % ) Rainrate ( cm )
Hoog6,6 4,8 13,0 Zuiden ( 187/408 ) 19,0 1024,4 92 -
Gemiddeld5,8 4,1 5,3 Zuiden #36/77 10,8 1022,7 89 -
Laag4,8 3,5 -   0,0 1021,3 85 -
Dagelijkse Tabular details for Zondag Nov 27 2022
Tijd Temp. ( °C ) Dew pt. ( °C ) Wind ( km/h ) van Windvlaag ( km/h ) Luchtdruk ( hPa ) Humid.( % ) Rainrate ( cm )
00:01 6,2 4,8 10,0 Zuiden 13,0 1024,4 91 -
00:06 6,2 4,8 8,0 Zuiden 15,0 1024,4 91 -
00:11 6,3 4,8 8,0 ZO 13,0 1024,4 90 -
00:16 6,2 4,7 8,0 Zuiden 10,0 1024,0 90 -
00:21 6,2 4,8 11,0 ZO 15,0 1024,0 91 -
00:26 6,1 4,6 5,0 Zuiden 11,0 1024,0 90 -
00:31 6,1 4,6   Kalm 8,0 1024,0 90 -
00:36 6,1 4,6 3,0 ZZO 11,0 1024,0 90 -
00:41 5,9 4,4 8,0 ZZO 11,0 1024,0 90 -
00:47 5,9 4,5 5,0 ZZO 11,0 1024,0 91 -
00:52 5,9 4,5 1,0 ZZO 8,0 1024,0 91 -
00:57 5,8 4,3 8,0 Zuiden 10,0 1024,0 90 -
01:02 5,7 4,2 3,0 Zuiden 8,0 1024,0 90 -
01:07 5,6 4,1 3,0 Zuiden 6,0 1024,0 90 -
01:12 5,5 4,1 3,0 Zuiden 8,0 1024,0 91 -
01:17 5,4 3,9 8,0 Zuiden 8,0 1024,0 90 -
01:22 5,3 4,0 8,0 ZZO 11,0 1024,0 91 -
01:27 5,3 4,0 1,0 Zuiden 8,0 1024,0 91 -
01:32 5,2 3,9 3,0 Zuiden 5,0 1023,7 91 -
01:37 5,1 3,8 5,0 Zuiden 5,0 1023,7 91 -
01:43 5,1 3,8 6,0 ZZO 8,0 1023,7 91 -
01:48 5,0 3,7 1,0 Zuiden 6,0 1023,7 91 -
01:53 4,9 3,6 3,0 ZZO 5,0 1023,7 91 -
01:58 4,9 3,6 6,0 Zuiden 8,0 1023,4 91 -
02:03 4,9 3,6   Kalm   1023,4 91 -
02:08 4,8 3,5   Kalm   1023,4 91 -
02:13 4,8 3,6   Kalm 8,0 1023,0 92 -
02:18 4,8 3,6 1,0 Zuiden 8,0 1023,0 92 -
02:23 4,8 3,6 1,0 Zuiden 8,0 1023,0 92 -
02:28 4,9 3,7 1,0 Zuiden 8,0 1023,4 92 -
02:33 4,9 3,7 3,0 Zuiden 6,0 1023,4 92 -
02:38 4,9 3,7 3,0 ZZO 8,0 1023,4 92 -
02:43 5,0 3,8 6,0 ZZO 10,0 1023,0 92 -
02:48 5,0 3,8 6,0 ZO 10,0 1023,0 92 -
02:54 5,1 3,9 8,0 ZZO 16,0 1023,0 92 -
02:59 5,2 4,0 3,0 ZZW 13,0 1022,7 92 -
03:04 5,2 4,0 6,0 ZZO 15,0 1022,7 92 -
03:09 5,3 4,1 10,0 Zuiden 13,0 1022,7 92 -
03:14 5,4 4,2 5,0 Zuiden 15,0 1022,4 92 -
03:19 5,4 4,2 10,0 ZZO 11,0 1022,4 92 -
03:24 5,5 4,3 3,0 ZZO 10,0 1022,4 92 -
03:29 5,6 4,4 6,0 Zuiden 11,0 1022,0 92 -
03:34 5,6 4,2 1,0 ZO 10,0 1022,0 91 -
03:39 5,7 4,3 3,0 Zuiden 10,0 1022,0 91 -
03:44 5,7 4,3 3,0 ZO 13,0 1022,0 91 -
03:49 5,8 4,3 5,0 ZZW 8,0 1022,0 90 -
03:54 5,8 4,3 6,0 Zuiden 15,0 1022,0 90 -
03:59 5,9 4,4 1,0 ZZO 8,0 1022,0 90 -
04:04 6,0 4,3 11,0 ZZW 18,0 1022,0 89 -
04:09 6,1 4,4 13,0 Zuiden 16,0 1022,0 89 -
04:14 6,2 4,4 3,0 Zuiden 13,0 1022,0 88 -
04:19 6,2 4,4 3,0 Zuiden 13,0 1022,0 88 -
04:24 6,2 4,2 6,0 ZZO 15,0 1022,0 87 -
04:29 6,2 4,2 3,0 Zuiden 16,0 1021,7 87 -
04:34 6,2 4,0 11,0 ZZO 15,0 1021,7 86 -
04:39 6,3 4,1 6,0 ZZO 19,0 1021,7 86 -
04:44 6,3 4,1 6,0 ZZO 10,0 1021,7 86 -
04:49 6,3 4,1 13,0 ZZW 13,0 1021,7 86 -
04:54 6,3 4,1 8,0 ZZO 18,0 1021,7 86 -
04:59 6,3 4,0 11,0 Zuiden 11,0 1021,3 85 -
05:05 6,3 4,0 13,0 Zuiden 16,0 1021,3 85 -
05:10 6,3 4,0 6,0 ZZW 13,0 1021,3 85 -
05:15 6,4 4,1 3,0 Zuiden 10,0 1021,7 85 -
05:20 6,3 4,0 8,0 ZZO 11,0 1021,7 85 -
05:25 6,3 4,0 3,0 Zuiden 11,0 1021,7 85 -
05:30 6,4 4,1 1,0 ZZO 10,0 1021,7 85 -
05:35 6,3 4,0 6,0 ZZW 10,0 1021,7 85 -
05:40 6,4 4,1 6,0 ZZO 13,0 1021,7 85 -
05:45 6,4 4,1 6,0 Zuiden 13,0 1021,7 85 -
05:51 6,4 4,1 6,0 ZZO 13,0 1021,7 85 -
05:56 6,4 4,1 6,0 ZZW 8,0 1021,7 85 -
06:01 6,4 4,1 8,0 ZZW 15,0 1021,3 85 -
06:06 6,5 4,2 1,0 Zuiden 10,0 1021,3 85 -
06:11 6,5 4,2 6,0 Zuiden 13,0 1021,3 85 -
06:16 6,6 4,3 8,0 Zuiden 11,0 1021,3 85 -
06:21 6,6 4,3 5,0 ZZW 10,0 1021,3 85 -
06:26 6,6 4,3 6,0 Zuiden 8,0 1021,3 85 -

Download your copy of this data-set  here

Our weather-data as stored at Weather Underground. Script ontwikkeld door Jim McMurry. Rewritten for template use Leuven-Template

U vindt ons ook hier:

Het Weer Aktueel

UK Metoffice

European Weather Network

Weather Underground

AWEKAS

Select oktober 2022Select oktober 2022 />